Bangkok (Suvarnabhumi), Thailand

3:32 PM +07 on May 28, 2017 (GMT +0700)
Bangkok (Suvarnabhumi)

Weather History for VTBS - February, 2014

Change the Weather History Date:

Monday, February 3, 2014

  Actual Average (VTBU) Record (VTBU)
Temperature  
Mean Temperature 80 °F -  
Max Temperature 91 °F 91 °F 93 °F (2003)
Min Temperature 70 °F 73 °F -22 °F (2006)
Cooling Degree Days 16    
Growing Degree Days 30 (Base 50)    
Moisture  
Dew Point 70 °F    
Average Humidity 70    
Maximum Humidity 88    
Minimum Humidity 42    
Precipitation  
Precipitation 0.00 in 0.03 in - ()
Sea Level Pressure  
Sea Level Pressure 29.76 in    
Wind  
Wind Speed 5 mph ()    
Max Wind Speed 13 mph    
Max Gust Speed -    
Visibility 4.8 miles    
Events      
Averages and records for this station are not official NWS values.
T = Trace of Precipitation, MM = Missing Value Source: Averaged Metar Reports

Daily Weather History Graph

Daily Weather History Graph

Search for Another Location

Airport or City:

Trip Planner

Search our weather history database for the weather conditions in past years. The results will help you decide how hot, cold, wet, or windy it might be!

Date:

Astronomy

Feb. 03, 2014 Rise Set
Actual Time 6:42 AM +07 6:17 PM +07
Civil Twilight 6:20 AM +07 6:39 PM +07
Nautical Twilight 5:54 AM +07 7:05 PM +07
Astronomical Twilight 5:29 AM +07 7:30 PM +07
Moon 9:11 AM +07 (2/3) 9:41 PM +07 (2/3)
Length of Visible Light 12h 19m
Length of Day
11h 34m
Waxing Crescent, 15% of the Moon is Illuminated
Feb 3
Waxing Crescent
Feb 7
First Quarter
Feb 15
Full
Feb 23
Last Quarter
Mar 1
New

Hourly Weather History & Observations

Time (+07) Temp. Heat Index Dew Point Humidity Pressure Visibility Wind Dir Wind Speed Gust Speed Precip Events Conditions
12:00 AM 77.0 °F - 69.8 °F 78% 29.80 in - South 10.4 mph - N/A   Clear
12:30 AM 77.0 °F - 71.6 °F 83% 29.80 in - South 10.4 mph - N/A   Clear
1:00 AM 79 °F - 68 °F 60% 29.78 in 4 mi Calm Calm - -   Mist
1:00 AM 77.0 °F - 71.6 °F 83% 29.80 in - South 8.1 mph - N/A   Clear
1:30 AM 77.0 °F - 71.6 °F 83% 29.80 in - South 9.2 mph - N/A   Clear
2:00 AM 77.0 °F - 69.8 °F 78% 29.77 in - South 9.2 mph - N/A   Clear
2:30 AM 75.2 °F - 69.8 °F 83% 29.77 in - South 5.8 mph - N/A   Clear
3:00 AM 75.2 °F - 69.8 °F 83% 29.77 in 5.6 mi SSE 4.6 mph - N/A   Unknown
3:30 AM 75.2 °F - 69.8 °F 83% 29.77 in 5.6 mi SSE 3.5 mph - N/A   Unknown
4:00 AM 77 °F - 69 °F 69% 29.75 in 4 mi Calm Calm - -   Mist
4:00 AM 75.2 °F - 69.8 °F 83% 29.77 in 5.0 mi Calm Calm - N/A   Unknown
4:30 AM 73.4 °F - 69.8 °F 88% 29.77 in 4.3 mi Calm Calm - N/A   Unknown
5:00 AM 73.4 °F - 69.8 °F 88% 29.77 in 3.7 mi Calm Calm - N/A   Unknown
5:30 AM 73.4 °F - 69.8 °F 88% 29.77 in 3.7 mi Calm Calm - N/A   Unknown
6:00 AM 71.6 °F - 68.0 °F 88% 29.77 in 3.7 mi Calm Calm - N/A   Unknown
6:30 AM 69.8 °F - 66.2 °F 88% 29.77 in 3.1 mi Calm Calm - N/A   Mist
7:00 AM 73 °F - 69 °F 84% 29.78 in 4 mi Calm Calm - -   Mist
7:00 AM 71.6 °F - 68.0 °F 88% 29.80 in 2.5 mi Calm Calm - N/A   Mist
7:30 AM 73.4 °F - 68.0 °F 83% 29.80 in 2.5 mi East 4.6 mph - N/A   Mist
8:00 AM 73.4 °F - 69.8 °F 88% 29.80 in 3.1 mi East 4.6 mph - N/A   Mist
8:30 AM 75.2 °F - 69.8 °F 83% 29.83 in 3.7 mi East 5.8 mph - N/A   Unknown
9:00 AM 77.0 °F - 69.8 °F 78% 29.83 in 4.3 mi ESE 5.8 mph - N/A   Unknown
9:30 AM 78.8 °F - 69.8 °F 74% 29.83 in 5.0 mi East 5.8 mph - N/A   Unknown
10:00 AM 86 °F - 70 °F 50% 29.83 in 4 mi WSW 3.5 mph - -   Haze
10:00 AM 80.6 °F 83.9 °F 69.8 °F 70% 29.83 in 5.6 mi ESE 5.8 mph - N/A   Unknown
10:30 AM 82.4 °F 86.3 °F 69.8 °F 66% 29.83 in 5.6 mi SE 5.8 mph - N/A   Unknown
11:00 AM 86.0 °F 90.4 °F 69.8 °F 58% 29.83 in 5.6 mi South 5.8 mph - N/A   Unknown
11:30 AM 87.8 °F 92.6 °F 69.8 °F 55% 29.80 in - SSE 3.5 mph - N/A   Clear
12:00 PM 87.8 °F 92.6 °F 69.8 °F 55% 29.80 in - ESE 4.6 mph - N/A   Clear
12:30 PM 87.8 °F 92.6 °F 69.8 °F 55% 29.77 in 5.6 mi SE 5.8 mph - N/A   Unknown
1:00 PM 89 °F - 72 °F 49% 29.75 in 5 mi West 2.3 mph - -   Haze
1:00 PM 89.6 °F 93.4 °F 68.0 °F 49% 29.74 in 5.6 mi South 6.9 mph - N/A   Unknown
1:30 PM 89.6 °F 94.7 °F 69.8 °F 52% 29.74 in 5.6 mi SSE 12.7 mph - N/A   Unknown
2:00 PM 89.6 °F 94.7 °F 69.8 °F 52% 29.71 in 5.6 mi South 10.4 mph - N/A   Unknown
2:30 PM 89.6 °F 94.7 °F 69.8 °F 52% 29.71 in - South 10.4 mph - N/A   Clear
3:00 PM 89.6 °F 94.7 °F 69.8 °F 52% 29.71 in - South 10.4 mph - N/A   Clear
3:30 PM 87.8 °F 92.6 °F 69.8 °F 55% 29.71 in - South 10.4 mph - N/A   Clear
4:00 PM 91 °F - 71 °F 42% 29.68 in 5 mi WNW 2.3 mph - -   Haze
4:00 PM 87.8 °F 91.4 °F 68.0 °F 52% 29.68 in - South 9.2 mph - N/A   Clear
4:30 PM 89.6 °F 93.4 °F 68.0 °F 49% 29.68 in - South 8.1 mph - N/A   Clear
5:00 PM 87.8 °F 90.4 °F 66.2 °F 49% 29.68 in - SSW 6.9 mph - N/A   Clear
5:30 PM 87.8 °F 91.4 °F 68.0 °F 52% 29.68 in - SSW 6.9 mph - N/A   Clear
6:00 PM 86.0 °F 89.4 °F 68.0 °F 55% 29.71 in 5.6 mi South 8.1 mph - N/A   Unknown
6:30 PM 84.2 °F 88.4 °F 69.8 °F 62% 29.71 in 5.6 mi South 9.2 mph - N/A   Unknown
7:00 PM 83 °F - 74 °F 67% 29.71 in 5 mi NW 3.5 mph - -   Mist
7:00 PM 80.6 °F 83.9 °F 69.8 °F 70% 29.71 in 5.6 mi South 8.1 mph - N/A   Unknown
7:30 PM 80.6 °F 83.9 °F 69.8 °F 70% 29.74 in 5.6 mi SSW 8.1 mph - N/A   Unknown
8:00 PM 78.8 °F - 69.8 °F 74% 29.74 in 5.6 mi SSW 6.9 mph - N/A   Unknown
8:30 PM 78.8 °F - 69.8 °F 74% 29.74 in 5.6 mi SSW 8.1 mph - N/A   Unknown
9:00 PM 78.8 °F - 71.6 °F 78% 29.74 in 5.6 mi SSW 8.1 mph - N/A   Unknown
9:30 PM 78.8 °F - 71.6 °F 78% 29.74 in 5.6 mi SSW 9.2 mph - N/A   Unknown
10:00 PM 81 °F - 72 °F 69% 29.75 in 5 mi Calm Calm - -   Mist
10:00 PM 78.8 °F - 71.6 °F 78% 29.77 in 5.6 mi SSW 10.4 mph - N/A   Unknown
10:30 PM 78.8 °F - 71.6 °F 78% 29.77 in 5.6 mi SSW 8.1 mph - N/A   Unknown
11:00 PM 78.8 °F - 71.6 °F 78% 29.77 in 5.6 mi SSW 8.1 mph - N/A   Unknown
11:30 PM 78.8 °F - 71.6 °F 78% 29.77 in 5.6 mi South 9.2 mph - N/A   Unknown